EW2725 Weather Reports


Display with metric or nautical units.
time (UTC)temp
F
wind
direction
speed
MPH
gust
MPH
rain 1hr
in
rain 24hr
in
rain mn
in
humidity
%
barometer
mb
20260502223118 51 173 2.0 0.0 0.00 0.00 0.00 79 1100.1
20260502223005 51 0 0.0 0.0 0.00 0.00 0.00 82 1010.5
20260502222505 51 0 0.0 0.0 0.00 0.00 0.00 82 1010.4
20260502222005 52 0 0.0 0.0 0.00 0.00 0.00 82 1010.5
20260502221617 51 178 3.0 0.0 0.00 0.00 0.00 79 1100.1
20260502220505 52 0 0.0 0.0 0.00 0.00 0.00 81 1010.4
20260502220118 52 228 4.0 0.0 0.00 0.00 0.00 78 1100.1
20260502220005 52 0 0.0 0.0 0.00 0.00 0.00 81 1010.5
20260502214630 52 188 3.0 0.0 0.00 0.00 0.00 77 1100.1
20260502214005 52 0 0.0 0.0 0.00 0.00 0.00 81 1010.6
20260502213131 52 188 3.0 0.0 0.00 0.00 0.00 77 1100.1
20260502213007 52 0 0.0 0.0 0.00 0.00 0.00 80 1010.6
20260502212507 52 0 0.0 0.0 0.00 0.00 0.00 80 1010.7
20260502211621 52 228 4.0 0.0 0.00 0.00 0.00 77 1100.1
20260502211504 52 0 0.0 0.0 0.00 0.00 0.00 79 1010.8
20260502210504 52 0 0.0 0.0 0.00 0.00 0.00 79 1010.7
20260502210121 52 238 3.0 0.0 0.00 0.00 0.00 76 1100.1
20260502210004 52 0 0.0 0.0 0.00 0.00 0.00 79 1010.8
20260502204618 52 219 4.0 0.0 0.00 0.00 0.00 75 1100.1
20260502204004 53 0 0.0 0.0 0.00 0.00 0.00 75 1010.8
20260502203505 53 0 0.0 0.0 0.00 0.00 0.00 74 1010.9
20260502203115 53 225 4.0 0.0 0.00 0.00 0.00 72 1100.1
20260502202504 54 0 0.0 0.0 0.00 0.00 0.00 73 1010.9
20260502202004 54 0 0.0 0.0 0.00 0.00 0.00 73 1010.9
20260502201516 53 225 5.0 0.0 0.00 0.00 0.00 70 1100.1
20260502201505 54 0 0.0 0.0 0.00 0.00 0.00 72 1010.9
20260502201005 54 0 0.0 0.0 0.00 0.00 0.00 71 1011.0
20260502200108 54 239 4.0 0.0 0.00 0.00 0.00 69 1100.1
20260502200004 54 0 0.0 0.0 0.00 0.00 0.00 71 1011.2
20260502194614 54 190 5.0 0.0 0.00 0.00 0.00 68 1100.1
20260502194005 54 0 0.0 0.0 0.00 0.00 0.00 70 1011.2
20260502193505 54 0 0.0 0.0 0.00 0.00 0.00 71 1011.3
20260502193020 54 249 4.0 0.0 0.00 0.00 0.00 70 1100.1
20260502193005 54 0 0.0 0.0 0.00 0.00 0.00 73 1011.4
20260502192504 54 0 0.0 0.0 0.00 0.00 0.00 72 1011.4
20260502191614 53 227 4.0 0.0 0.00 0.00 0.00 71 1100.1
20260502190114 54 232 5.0 0.0 0.00 0.00 0.00 72 1100.1
20260502185505 55 0 0.0 0.0 0.00 0.00 0.00 74 1011.7
20260502185005 55 0 0.0 0.0 0.00 0.00 0.00 73 1011.8
20260502184607 54 181 6.0 0.0 0.00 0.00 0.00 71 1100.1
20260502183506 56 0 0.0 0.0 0.00 0.00 0.00 71 1011.9
20260502183006 55 169 5.0 0.0 0.00 0.00 0.00 70 1100.1
20260502182506 56 0 0.0 0.0 0.00 0.00 0.00 69 1011.9
20260502181603 55 238 7.0 0.0 0.00 0.00 0.00 65 1100.1
20260502181506 56 0 0.0 0.0 0.00 0.00 0.00 63 1012.0
20260502180139 55 229 7.0 0.0 0.00 0.00 0.00 63 1100.1
20260502170126 55 184 3.0 0.0 0.00 0.00 0.00 65 1100.1
20260502164006 56 0 0.0 0.0 0.00 0.00 0.00 66 1011.9
20260502163114 56 227 4.0 0.0 0.00 0.00 0.00 65 1100.1
20260502163006 57 0 0.0 0.0 0.00 0.00 0.00 67 1012.0
20260502162006 55 0 0.0 0.0 0.00 0.00 0.00 70 1012.0
20260502161614 54 221 5.0 0.0 0.00 0.00 0.00 69 1100.1
20260502161505 55 0 0.0 0.0 0.00 0.00 0.00 70 1012.3
20260502151632 55 226 5.0 0.0 0.00 0.00 0.00 70 1100.1
20260502151505 56 0 0.0 0.0 0.00 0.00 0.00 69 1012.6
20260502151006 57 0 0.0 0.0 0.00 0.00 0.00 69 1012.6
20260502150506 57 0 0.0 0.0 0.00 0.00 0.00 69 1012.5
20260502130505 53 0 0.0 0.0 0.00 0.00 0.00 79 1013.1
20260502122505 52 0 0.0 0.0 0.00 0.00 0.00 80 1012.6
20260502121505 51 0 0.0 0.0 0.00 0.00 0.00 79 1012.7
20260502121006 51 0 0.0 0.0 0.00 0.00 0.00 79 1012.8
20260502120506 51 0 0.0 0.0 0.00 0.00 0.00 79 1012.7
20260502115006 51 0 0.0 0.0 0.00 0.00 0.00 81 1012.5
20260502114505 51 0 0.0 0.0 0.00 0.00 0.00 81 1012.5
20260502113006 50 0 0.0 0.0 0.00 0.00 0.00 83 1012.7
20260502112006 49 0 0.0 0.0 0.00 0.00 0.00 84 1012.6
20260502111505 49 0 0.0 0.0 0.00 0.00 0.00 85 1012.6
20260502111006 49 0 0.0 0.0 0.00 0.00 0.00 85 1012.6
20260502110506 49 0 0.0 0.0 0.00 0.00 0.00 86 1012.6
20260502104506 47 0 0.0 0.0 0.00 0.00 0.00 89 1012.3
20260502103506 46 0 0.0 0.0 0.00 0.00 0.00 90 1012.4
20260502101505 46 0 0.0 0.0 0.00 0.00 0.00 90 1012.5
20260502100505 45 0 0.0 0.0 0.00 0.00 0.00 90 1012.4
20260502091505 45 0 0.0 0.0 0.00 0.00 0.00 88 1012.1
20260502091006 45 0 0.0 0.0 0.00 0.00 0.00 88 1012.2
20260502090506 45 0 0.0 0.0 0.00 0.00 0.00 87 1012.1
20260502071006 43 0 0.0 0.0 0.00 0.00 0.00 85 1012.1
20260502070006 43 0 0.0 0.0 0.00 0.00 0.00 84 1012.1
20260502065005 43 0 0.0 0.0 0.00 0.00 0.00 86 1012.1
20260502063505 42 0 0.0 0.0 0.00 0.00 0.00 88 1012.2
20260502062506 42 0 0.0 0.0 0.00 0.00 0.00 88 1012.1
20260502062006 42 0 0.0 0.0 0.00 0.00 0.00 88 1012.2
20260502060505 42 0 0.0 0.0 0.00 0.00 0.00 87 1012.3
20260502060005 42 0 0.0 0.0 0.00 0.00 0.00 87 1012.3
20260502055505 42 0 0.0 0.0 0.00 0.00 0.00 87 1012.5
20260502055006 42 0 0.0 0.0 0.00 0.00 0.00 88 1012.4
20260502054505 42 0 0.0 0.0 0.00 0.00 0.00 87 1012.3
20260502054005 42 0 0.0 0.0 0.00 0.00 0.00 87 1012.3
20260502053006 42 0 0.0 0.0 0.00 0.00 0.00 86 1012.3
20260502052505 43 0 0.0 0.0 0.00 0.00 0.00 86 1012.3
20260502052005 43 0 0.0 0.0 0.00 0.00 0.00 86 1012.3
20260502044505 43 0 0.0 0.0 0.00 0.00 0.00 86 1012.4
20260502044005 43 0 0.0 0.0 0.00 0.00 0.00 86 1012.4
20260502042505 43 0 0.0 0.0 0.00 0.00 0.00 86 1012.4
20260502042006 43 0 0.0 0.0 0.00 0.00 0.00 86 1012.3
20260502041005 44 0 0.0 0.0 0.00 0.00 0.00 86 1012.3
20260502040006 44 0 0.0 0.0 0.00 0.00 0.00 87 1012.4
20260502035006 44 0 0.0 0.0 0.00 0.00 0.00 87 1012.3
20260502034505 44 0 0.0 0.0 0.00 0.00 0.00 87 1012.4
20260502033505 43 0 0.0 0.0 0.00 0.00 0.00 87 1012.4
20260502033006 43 0 0.0 0.0 0.00 0.00 0.00 87 1012.4
20260502032505 44 0 0.0 0.0 0.00 0.00 0.00 86 1012.4
20260502031006 44 0 0.0 0.0 0.00 0.00 0.00 86 1012.1
20260502030505 44 0 0.0 0.0 0.00 0.00 0.00 86 1012.0
20260502030005 44 0 0.0 0.0 0.00 0.00 0.00 86 1012.0
20260502025006 44 0 0.0 0.0 0.00 0.00 0.00 85 1011.9
20260502021505 46 0 0.0 0.0 0.00 0.00 0.00 85 1012.0
20260502020506 46 0 0.0 0.0 0.00 0.00 0.00 84 1012.0
20260502020005 46 0 0.0 0.0 0.00 0.00 0.00 84 1012.0
20260502014506 47 0 0.0 0.0 0.00 0.00 0.00 84 1012.0
20260502014006 47 0 0.0 0.0 0.00 0.00 0.00 83 1012.0
20260502012505 48 0 0.0 0.0 0.00 0.00 0.00 82 1011.8
20260502012006 48 0 0.0 0.0 0.00 0.00 0.00 82 1011.7
20260502011505 48 0 0.0 0.0 0.00 0.00 0.00 82 1011.6
20260502011005 48 0 0.0 0.0 0.00 0.00 0.00 81 1011.6
20260502010506 48 0 0.0 0.0 0.00 0.00 0.00 81 1011.5
20260502005505 49 0 0.0 0.0 0.00 0.00 0.00 80 1011.3
20260502005005 49 0 0.0 0.0 0.00 0.00 0.00 80 1011.2
20260502004005 50 0 0.0 0.0 0.00 0.00 0.00 79 1011.1
20260502003506 50 0 0.0 0.0 0.00 0.00 0.00 79 1011.2
20260502002505 50 0 0.0 0.0 0.00 0.00 0.00 78 1010.9
20260502002005 50 0 0.0 0.0 0.00 0.00 0.00 77 1010.8
20260502001005 51 0 0.0 0.0 0.00 0.00 0.00 76 1010.6
20260501235505 52 0 0.0 0.0 0.00 0.00 0.00 73 1010.3
20260501234005 53 0 0.0 0.0 0.00 0.00 0.00 69 1010.1
20260501233005 54 0 0.0 0.0 0.00 0.00 0.00 67 1010.0
20260501231505 56 0 0.0 0.0 0.00 0.00 0.00 63 1009.8
20260501230005 57 0 0.0 0.0 0.00 0.00 0.00 61 1009.5
20260501225005 58 0 0.0 0.0 0.00 0.00 0.00 58 1009.4